| time (UTC) | temp C | wind direction | speed KPH | gust KPH | rain 1hr cm | rain 24hr cm | rain mn cm | humidity % | barometer mb |
| 20260504070250 | 11 | 0 | 1.6 | 24.1 | 0.00 | 0.03 | 0.00 | 56 | 1006.9 |
| 20260504060240 | 11 | 0 | 0.0 | 9.7 | 0.00 | 0.03 | 0.00 | 55 | 1007.3 |
| 20260504050736 | 12 | 234 | 3.2 | 20.9 | 0.00 | 0.03 | 0.00 | 51 | 1007.5 |
| 20260504050232 | 12 | 223 | 3.2 | 25.7 | 0.00 | 0.03 | 0.00 | 51 | 1007.6 |
| 20260504045731 | 12 | 245 | 1.6 | 25.7 | 0.00 | 0.03 | 0.00 | 51 | 1007.6 |
| 20260504045231 | 12 | 0 | 1.6 | 24.1 | 0.00 | 0.03 | 0.00 | 52 | 1007.6 |
| 20260504044732 | 12 | 229 | 3.2 | 24.1 | 0.00 | 0.03 | 0.00 | 51 | 1007.7 |
| 20260504044232 | 12 | 226 | 3.2 | 24.1 | 0.00 | 0.03 | 0.00 | 51 | 1007.7 |
| 20260504043735 | 12 | 244 | 4.8 | 24.1 | 0.00 | 0.03 | 0.00 | 51 | 1007.7 |
| 20260504043231 | 12 | 222 | 4.8 | 24.1 | 0.00 | 0.03 | 0.00 | 51 | 1007.6 |
| 20260504042731 | 12 | 229 | 3.2 | 24.1 | 0.00 | 0.03 | 0.00 | 51 | 1007.7 |
| 20260504042438 | 12 | 0 | 3.2 | 25.7 | 0.00 | 0.03 | 0.00 | 51 | 1007.7 |
| 20260504041732 | 12 | 219 | 3.2 | 25.7 | 0.00 | 0.03 | 0.00 | 51 | 1007.7 |
| 20260504041232 | 12 | 0 | 3.2 | 24.1 | 0.00 | 0.03 | 0.00 | 50 | 1007.7 |
| 20260504040731 | 13 | 0 | 3.2 | 17.7 | 0.00 | 0.03 | 0.00 | 51 | 1007.5 |
| 20260504040232 | 13 | 0 | 3.2 | 19.3 | 0.00 | 0.03 | 0.00 | 51 | 1007.6 |
| 20260504035731 | 13 | 0 | 3.2 | 22.5 | 0.00 | 0.03 | 0.03 | 50 | 1007.6 |
| 20260504035231 | 12 | 256 | 1.6 | 22.5 | 0.00 | 0.03 | 0.03 | 51 | 1007.5 |
| 20260504034731 | 12 | 227 | 1.6 | 22.5 | 0.00 | 0.03 | 0.03 | 51 | 1007.6 |
| 20260504034232 | 12 | 242 | 1.6 | 22.5 | 0.00 | 0.03 | 0.03 | 51 | 1007.5 |
| 20260504033730 | 12 | 221 | 1.6 | 19.3 | 0.00 | 0.03 | 0.03 | 52 | 1007.7 |
| 20260504033231 | 12 | 220 | 1.6 | 19.3 | 0.00 | 0.03 | 0.03 | 52 | 1007.7 |
| 20260504032729 | 12 | 242 | 0.0 | 11.3 | 0.00 | 0.03 | 0.03 | 52 | 1007.7 |
| 20260504032230 | 12 | 224 | 0.0 | 11.3 | 0.00 | 0.03 | 0.03 | 53 | 1007.6 |
| 20260504031729 | 12 | 224 | 0.0 | 4.8 | 0.00 | 0.03 | 0.03 | 53 | 1007.7 |
| 20260504031229 | 12 | 214 | 0.0 | 8.0 | 0.00 | 0.03 | 0.03 | 53 | 1007.7 |
| 20260504030728 | 12 | 231 | 1.6 | 16.1 | 0.00 | 0.03 | 0.03 | 54 | 1007.7 |
| 20260504030226 | 12 | 219 | 1.6 | 16.1 | 0.00 | 0.03 | 0.03 | 53 | 1007.7 |
| 20260504025720 | 12 | 223 | 1.6 | 14.5 | 0.00 | 0.03 | 0.03 | 53 | 1007.7 |
| 20260504025215 | 12 | 220 | 1.6 | 14.5 | 0.00 | 0.03 | 0.03 | 54 | 1007.7 |
| 20260504024710 | 12 | 242 | 1.6 | 14.5 | 0.00 | 0.03 | 0.03 | 54 | 1007.8 |
| 20260504024211 | 12 | 240 | 1.6 | 14.5 | 0.00 | 0.03 | 0.03 | 54 | 1007.8 |
| 20260504023710 | 12 | 231 | 1.6 | 16.1 | 0.00 | 0.03 | 0.03 | 54 | 1007.9 |
| 20260504023210 | 12 | 247 | 1.6 | 16.1 | 0.00 | 0.03 | 0.03 | 56 | 1007.9 |
| 20260504022708 | 12 | 210 | 0.0 | 8.0 | 0.00 | 0.03 | 0.03 | 55 | 1007.9 |
| 20260504022207 | 12 | 225 | 0.0 | 9.7 | 0.00 | 0.03 | 0.03 | 57 | 1007.9 |
| 20260504021706 | 12 | 221 | 0.0 | 9.7 | 0.00 | 0.03 | 0.03 | 58 | 1008.0 |
| 20260504021206 | 11 | 220 | 0.0 | 9.7 | 0.00 | 0.03 | 0.03 | 61 | 1008.0 |
| 20260504020706 | 11 | 209 | 0.0 | 8.0 | 0.00 | 0.03 | 0.03 | 63 | 1008.0 |
| 20260504020206 | 11 | 204 | 0.0 | 0.0 | 0.00 | 0.03 | 0.03 | 68 | 1008.0 |
| 20260504015703 | 11 | 200 | 0.0 | 0.0 | 0.00 | 0.03 | 0.03 | 69 | 1008.0 |
| 20260504015202 | 10 | 200 | 0.0 | 0.0 | 0.00 | 0.03 | 0.03 | 71 | 1008.1 |
| 20260504014702 | 10 | 199 | 0.0 | 0.0 | 0.00 | 0.03 | 0.03 | 72 | 1008.0 |
| 20260504014159 | 10 | 199 | 0.0 | 0.0 | 0.00 | 0.03 | 0.03 | 74 | 1008.1 |
| 20260504013657 | 10 | 199 | 0.0 | 0.0 | 0.00 | 0.03 | 0.03 | 75 | 1008.1 |
| 20260504013155 | 10 | 196 | 0.0 | 0.0 | 0.00 | 0.03 | 0.03 | 78 | 1008.1 |
| 20260504012654 | 10 | 195 | 0.0 | 0.0 | 0.00 | 0.03 | 0.03 | 80 | 1008.1 |
| 20260504012154 | 10 | 194 | 0.0 | 0.0 | 0.00 | 0.03 | 0.03 | 82 | 1008.1 |
| 20260504011653 | 9 | 167 | 0.0 | 0.0 | 0.00 | 0.03 | 0.03 | 84 | 1008.1 |
| 20260504011154 | 9 | 225 | 0.0 | 0.0 | 0.00 | 0.03 | 0.03 | 85 | 1008.2 |
| 20260504010647 | 9 | 228 | 0.0 | 0.0 | 0.00 | 0.03 | 0.03 | 85 | 1008.2 |
| 20260504010141 | 9 | 238 | 0.0 | 0.0 | 0.00 | 0.03 | 0.03 | 85 | 1008.4 |
| 20260504005635 | 9 | 238 | 0.0 | 0.0 | 0.03 | 0.03 | 0.03 | 85 | 1008.5 |
| 20260504005132 | 9 | 237 | 0.0 | 0.0 | 0.03 | 0.03 | 0.03 | 85 | 1008.7 |
| 20260504004631 | 9 | 238 | 0.0 | 0.0 | 0.03 | 0.03 | 0.03 | 85 | 1008.7 |
| 20260504004132 | 9 | 238 | 0.0 | 0.0 | 0.03 | 0.03 | 0.03 | 84 | 1008.7 |
| 20260504003630 | 10 | 238 | 0.0 | 0.0 | 0.03 | 0.03 | 0.03 | 84 | 1008.7 |
| 20260504003130 | 10 | 238 | 0.0 | 0.0 | 0.03 | 0.03 | 0.03 | 83 | 1008.7 |
| 20260504002630 | 10 | 0 | 0.0 | 0.0 | 0.03 | 0.03 | 0.03 | 83 | 1008.7 |
| 20260504002129 | 10 | 0 | 0.0 | 0.0 | 0.03 | 0.03 | 0.03 | 82 | 1008.7 |
| 20260504001631 | 10 | 0 | 0.0 | 0.0 | 0.03 | 0.03 | 0.03 | 81 | 1008.9 |
| 20260504001130 | 10 | 241 | 0.0 | 1.6 | 0.03 | 0.03 | 0.03 | 80 | 1009.0 |
| 20260504000633 | 10 | 241 | 0.0 | 1.6 | 0.03 | 0.03 | 0.03 | 79 | 1009.0 |
| 20260504000130 | 10 | 241 | 0.0 | 11.3 | 0.03 | 0.03 | 0.03 | 78 | 1009.0 |
| 20260503235631 | 10 | 240 | 0.0 | 11.3 | 0.00 | 0.00 | 0.00 | 76 | 1008.8 |
| 20260503235130 | 10 | 0 | 0.0 | 0.0 | 0.00 | 0.00 | 0.00 | 75 | 1008.8 |
| 20260503234631 | 10 | 237 | 0.0 | 11.3 | 0.00 | 0.00 | 0.00 | 74 | 1008.7 |
| 20260503234130 | 10 | 0 | 0.0 | 11.3 | 0.00 | 0.00 | 0.00 | 73 | 1008.6 |
| 20260503233631 | 10 | 0 | 1.6 | 17.7 | 0.00 | 0.00 | 0.00 | 72 | 1008.7 |
| 20260503233130 | 10 | 0 | 3.2 | 19.3 | 0.00 | 0.00 | 0.00 | 72 | 1008.7 |
| 20260503232630 | 11 | 224 | 3.2 | 25.7 | 0.00 | 0.00 | 0.00 | 70 | 1008.9 |
| 20260503232130 | 11 | 0 | 4.8 | 30.6 | 0.00 | 0.00 | 0.00 | 66 | 1008.9 |
| 20260503231631 | 11 | 0 | 3.2 | 30.6 | 0.00 | 0.00 | 0.00 | 62 | 1008.7 |
| 20260503231130 | 12 | 229 | 1.6 | 9.7 | 0.00 | 0.00 | 0.00 | 60 | 1008.6 |
| 20260503230630 | 12 | 221 | 1.6 | 20.9 | 0.00 | 0.00 | 0.00 | 57 | 1008.5 |
| 20260503230130 | 12 | 232 | 3.2 | 20.9 | 0.00 | 0.00 | 0.00 | 56 | 1008.4 |
| 20260503225631 | 12 | 235 | 3.2 | 19.3 | 0.00 | 0.00 | 0.00 | 54 | 1008.3 |
| 20260503225130 | 12 | 230 | 1.6 | 19.3 | 0.00 | 0.00 | 0.00 | 53 | 1008.3 |
| 20260503224630 | 12 | 211 | 1.6 | 25.7 | 0.00 | 0.00 | 0.00 | 53 | 1008.2 |
| 20260503224130 | 12 | 244 | 1.6 | 25.7 | 0.00 | 0.00 | 0.00 | 52 | 1008.2 |
| 20260503223630 | 12 | 225 | 3.2 | 30.6 | 0.00 | 0.00 | 0.00 | 51 | 1008.0 |
| 20260503223130 | 12 | 216 | 6.4 | 30.6 | 0.00 | 0.00 | 0.00 | 51 | 1008.1 |
| 20260503222630 | 12 | 229 | 9.7 | 38.6 | 0.00 | 0.00 | 0.00 | 50 | 1008.1 |
| 20260503222130 | 12 | 221 | 9.7 | 38.6 | 0.00 | 0.00 | 0.00 | 49 | 1008.0 |
| 20260503221631 | 13 | 233 | 6.4 | 29.0 | 0.00 | 0.00 | 0.00 | 48 | 1007.9 |
| 20260503221130 | 13 | 226 | 3.2 | 25.7 | 0.00 | 0.00 | 0.00 | 48 | 1008.1 |
| 20260503220631 | 13 | 256 | 4.8 | 22.5 | 0.00 | 0.00 | 0.00 | 47 | 1008.0 |
| 20260503220131 | 13 | 0 | 3.2 | 22.5 | 0.00 | 0.00 | 0.00 | 47 | 1008.0 |
| 20260503215631 | 13 | 215 | 1.6 | 12.9 | 0.00 | 0.00 | 0.00 | 46 | 1007.9 |
| 20260503215129 | 13 | 246 | 1.6 | 12.9 | 0.00 | 0.00 | 0.00 | 46 | 1007.8 |
| 20260503214631 | 13 | 250 | 3.2 | 24.1 | 0.00 | 0.00 | 0.00 | 46 | 1007.8 |
| 20260503214130 | 13 | 219 | 3.2 | 27.4 | 0.00 | 0.00 | 0.00 | 46 | 1007.7 |
| 20260503213631 | 13 | 233 | 1.6 | 22.5 | 0.00 | 0.00 | 0.00 | 47 | 1007.8 |
| 20260503213131 | 12 | 205 | 0.0 | 16.1 | 0.00 | 0.00 | 0.00 | 49 | 1007.9 |
| 20260503212630 | 13 | 194 | 3.2 | 22.5 | 0.00 | 0.00 | 0.00 | 50 | 1008.0 |
| 20260503212131 | 13 | 229 | 4.8 | 22.5 | 0.00 | 0.00 | 0.00 | 48 | 1008.5 |
| 20260503211630 | 13 | 247 | 4.8 | 29.0 | 0.00 | 0.00 | 0.00 | 46 | 1008.4 |
| 20260503211131 | 13 | 246 | 8.0 | 32.2 | 0.00 | 0.00 | 0.00 | 45 | 1008.4 |
| 20260503210630 | 13 | 215 | 6.4 | 30.6 | 0.00 | 0.00 | 0.00 | 45 | 1008.4 |
| 20260503210130 | 13 | 238 | 4.8 | 30.6 | 0.00 | 0.00 | 0.00 | 44 | 1008.2 |
| 20260503205630 | 13 | 235 | 3.2 | 30.6 | 0.00 | 0.00 | 0.00 | 45 | 1008.1 |
| 20260503205130 | 13 | 270 | 1.6 | 16.1 | 0.00 | 0.00 | 0.00 | 43 | 1008.2 |
| 20260503204631 | 13 | 234 | 3.2 | 30.6 | 0.00 | 0.00 | 0.00 | 43 | 1008.1 |
| 20260503204130 | 13 | 238 | 4.8 | 30.6 | 0.00 | 0.00 | 0.00 | 42 | 1008.1 |
| 20260503203631 | 13 | 263 | 4.8 | 25.7 | 0.00 | 0.00 | 0.00 | 42 | 1008.2 |
| 20260503203131 | 13 | 223 | 4.8 | 25.7 | 0.00 | 0.00 | 0.00 | 42 | 1008.2 |
| 20260503202631 | 13 | 233 | 3.2 | 22.5 | 0.00 | 0.00 | 0.00 | 41 | 1008.3 |
| 20260503202130 | 13 | 264 | 6.4 | 25.7 | 0.00 | 0.00 | 0.00 | 41 | 1008.4 |
| 20260503201631 | 13 | 252 | 6.4 | 25.7 | 0.00 | 0.00 | 0.00 | 39 | 1008.4 |
| 20260503201130 | 13 | 201 | 3.2 | 22.5 | 0.00 | 0.00 | 0.00 | 39 | 1008.5 |
| 20260503200630 | 14 | 226 | 4.8 | 32.2 | 0.00 | 0.00 | 0.00 | 40 | 1008.6 |
| 20260503200131 | 13 | 234 | 9.7 | 32.2 | 0.00 | 0.00 | 0.00 | 38 | 1008.7 |
| 20260503195631 | 14 | 238 | 8.0 | 25.7 | 0.00 | 0.00 | 0.00 | 38 | 1008.8 |
| 20260503195130 | 14 | 0 | 4.8 | 22.5 | 0.00 | 0.00 | 0.00 | 38 | 1008.8 |
| 20260503194631 | 14 | 221 | 4.8 | 32.2 | 0.00 | 0.00 | 0.00 | 39 | 1008.9 |
| 20260503185131 | 13 | 265 | 4.8 | 24.1 | 0.00 | 0.00 | 0.00 | 38 | 1010.0 |
| 20260503184630 | 13 | 243 | 4.8 | 25.7 | 0.00 | 0.00 | 0.00 | 38 | 1010.1 |
| 20260503184135 | 13 | 243 | 4.8 | 25.7 | 0.00 | 0.00 | 0.00 | 39 | 1010.1 |
| 20260503183630 | 13 | 0 | 3.2 | 20.9 | 0.00 | 0.00 | 0.00 | 39 | 1010.1 |
| 20260503183131 | 13 | 236 | 4.8 | 19.3 | 0.00 | 0.00 | 0.00 | 40 | 1010.2 |
| 20260503182631 | 13 | 0 | 3.2 | 19.3 | 0.00 | 0.00 | 0.00 | 40 | 1010.3 |
| 20260503182130 | 13 | 238 | 1.6 | 19.3 | 0.00 | 0.00 | 0.00 | 41 | 1010.3 |
| 20260503181631 | 12 | 225 | 1.6 | 20.9 | 0.00 | 0.00 | 0.00 | 41 | 1010.3 |
| 20260503181130 | 12 | 304 | 1.6 | 20.9 | 0.00 | 0.00 | 0.00 | 45 | 1010.4 |
| 20260503180631 | 12 | 261 | 0.0 | 6.4 | 0.00 | 0.00 | 0.00 | 48 | 1010.6 |
| 20260503180131 | 12 | 265 | 0.0 | 6.4 | 0.00 | 0.00 | 0.00 | 51 | 1010.5 |
| 20260503175630 | 12 | 269 | 0.0 | 0.0 | 0.00 | 0.00 | 0.00 | 51 | 1010.6 |
| 20260503175129 | 12 | 5 | 0.0 | 0.0 | 0.00 | 0.00 | 0.00 | 53 | 1010.6 |
| 20260503174631 | 12 | 5 | 0.0 | 0.0 | 0.00 | 0.00 | 0.00 | 53 | 1010.6 |
| 20260503174131 | 11 | 5 | 0.0 | 0.0 | 0.00 | 0.00 | 0.00 | 53 | 1010.7 |
| 20260503173632 | 11 | 5 | 0.0 | 0.0 | 0.00 | 0.00 | 0.00 | 54 | 1010.7 |
| 20260503173131 | 11 | 5 | 0.0 | 0.0 | 0.00 | 0.00 | 0.00 | 57 | 1010.8 |
| 20260503172632 | 11 | 5 | 0.0 | 0.0 | 0.00 | 0.00 | 0.00 | 58 | 1010.9 |
| 20260503172130 | 10 | 5 | 0.0 | 0.0 | 0.00 | 0.00 | 0.00 | 58 | 1010.9 |
| 20260503171632 | 10 | 10 | 0.0 | 0.0 | 0.00 | 0.00 | 0.00 | 58 | 1011.0 |
| 20260503171131 | 10 | 10 | 0.0 | 0.0 | 0.00 | 0.00 | 0.00 | 58 | 1011.2 |
| 20260503170131 | 10 | 10 | 0.0 | 0.0 | 0.00 | 0.00 | 0.00 | 59 | 1011.3 |
| 20260503150604 | 10 | 198 | 0.0 | 14.5 | 0.00 | 0.00 | 0.00 | 52 | 1012.0 |
| 20260503131103 | 7 | 243 | 0.0 | 11.3 | 0.00 | 0.00 | 0.00 | 58 | 1013.4 |
| 20260503130604 | 7 | 232 | 0.0 | 6.4 | 0.00 | 0.00 | 0.00 | 57 | 1013.4 |
| 20260503110532 | 3 | 229 | 0.0 | 0.0 | 0.00 | 0.00 | 0.00 | 76 | 1013.4 |
| 20260503090459 | 2 | 228 | 0.0 | 0.0 | 0.00 | 0.00 | 0.00 | 80 | 1012.9 |
| 20260503081449 | 3 | 228 | 0.0 | 0.0 | 0.00 | 0.00 | 0.00 | 78 | 1013.2 |
| 20260503080947 | 3 | 228 | 0.0 | 0.0 | 0.00 | 0.00 | 0.00 | 78 | 1013.1 |
| 20260503080458 | 3 | 228 | 0.0 | 0.0 | 0.00 | 0.00 | 0.00 | 78 | 1013.1 |
| 20260503072937 | 3 | 228 | 0.0 | 0.0 | 0.00 | 0.00 | 0.00 | 78 | 1013.1 |
| 20260503072437 | 3 | 228 | 0.0 | 0.0 | 0.00 | 0.00 | 0.00 | 79 | 1013.1 |
| 20260503071935 | 3 | 228 | 0.0 | 0.0 | 0.00 | 0.00 | 0.00 | 79 | 1013.1 |
| 20260503071435 | 3 | 229 | 0.0 | 0.0 | 0.00 | 0.00 | 0.00 | 79 | 1013.1 |
| 20260503070935 | 3 | 228 | 0.0 | 0.0 | 0.00 | 0.00 | 0.00 | 79 | 1013.1 |